Current weather by "City, St" or "zip code"  
 

Current Conditions: Reading, Reading Regional Airport, PA

Mostly Cloudy


78.0 F

Last Updated on Aug 9 2022, 11:54 pm EDT
Humidity: 90%
Wind Speed: N 0.0 mph
Barometer 30.00 in
Dewpoint: 75.0 F
Visibility: 10.00 mi
Precip: --
Heat Index: NA
Wind Chill: NA
Current conditions at:

Reading, Reading Regional Airport, PA (KRDG)

Lat: 40.37333 Lon: 75.95944

Local Radar Image active severe weather and emergency alerts image image weather storm and storm spotter reports image weather observation monitoring service image
Local
Radar
Active
Alerts
Storm Reports Obs
Monitoring

Sign-up For Email & Text Message Weather Alert Notification Services



Advertise Here

Observation History for Reading, Reading Regional Airport, PA


Time Wind
(mph)
Vis
(mi)
Weather Precip (in) Temperature (F) Relative
Humidity
Wind
Chill
(F)
Heat
Index
(F)
Pressure
Air Dwpt altimeter
(in)
sea level
(mb)
Rmks
11:54 pm EDT N 0.0 10.00 Mostly Cloudy -- 78.0 75.0 90% NA NA 30.00 1016.0
9:54 pm EDT N 0.0 10.00 A Few Clouds -- 82.0 73.9 77% NA 88 29.98 1015.4
8:54 pm EDT SW 5.8 10.00 Partly Cloudy -- 82.0 75.0 79% NA 89 29.97 1014.9
7:54 pm EDT W 4.6 10.00 Fair -- 82.0 77.0 85% NA 90 29.95 1014.1
6:54 pm EDT N 0.0 10.00 Fair -- 83.0 75.9 79% NA 91 29.93 1013.7
5:54 pm EDT N 0.0 10.00 Partly Cloudy 00.21 78.0 75.0 90% NA NA 29.94 1013.9
4:54 pm EDT SW 12.7 G 28.8 10.00 Thunderstorm -- 86.0 73.0 65% NA 93 29.93 1013.7
3:54 pm EDT N 6.9 10.00 Thunderstorm in Vicinity -- 87.0 72.0 61% NA 93 29.91 1013.0
2:54 pm EDT SW 9.2 10.00 Mostly Cloudy -- 95.0 72.0 47% NA 103 29.92 1013.1
1:54 pm EDT W 10.4 G 18.4 10.00 Partly Cloudy -- 96.0 72.0 46% NA 105 29.93 1013.6
12:54 pm EDT W 13.8 10.00 Mostly Cloudy -- 92.0 72.0 52% NA 100 29.94 1014.0
11:54 am EDT W 11.5 10.00 Mostly Cloudy -- 91.0 73.0 56% NA 100 29.95 1014.4
10:54 am EDT W 9.2 10.00 A Few Clouds -- 91.0 73.0 56% NA 100 29.95 1014.5
9:54 am EDT W 12.7 10.00 Fair -- 88.0 73.0 61% NA 96 29.95 1014.3
7:54 am EDT SW 8.1 10.00 Fair -- 83.0 73.0 72% NA 89 29.95 1014.2
6:54 am EDT S 4.6 10.00 Fair -- 80.0 73.0 79% NA 84 29.94 1014.0
5:54 am EDT S 4.6 10.00 Fair -- 78.0 73.0 85% NA NA 29.93 1013.6
4:54 am EDT N 0.0 10.00 Fair -- 78.0 73.0 85% NA NA 29.93 1013.5
3:54 am EDT N 0.0 10.00 Fair -- 80.0 73.0 79% NA 84 29.92 1013.4
2:54 am EDT W 5.8 10.00 Fair -- 80.0 73.0 79% NA 84 29.92 1013.1
1:54 am EDT N 0.0 10.00 Fair -- 79.0 73.9 85% NA NA 29.92 1013.4

Regional Weather Observation


Reading, Reading Regional Airport, PA (KRDG)

Mostly Cloudy
78.0 F

Lancaster, Lancaster Airport, PA (KLNS)

Fair
78.0 F

Hazleton Municipal Airport, PA (KHZL)

Fair
70.0 F

Lehighton Jake Arner Memorial Airport, PA (K22N)

Fair
73.0 F

Selinsgrove Penn Valley Airport, PA (KSEG)

Mostly Cloudy
71.0 F

Harrisburg, Harrisburg International Airport, PA (KMDT)

Mostly Cloudy
78.0 F

Advertise Here


Advertise Here